Погода в Куре

Погода в Куре : погода сейчас, прогноз погоды и архив. Всё, что Вы хотите узнать о погоде в Куре!

Поиск расширенной информации на нашем сайте:

Другие новости

Новости СМИ2

Главная страница сайта

Новости сайта

03.07.2017

Напоминаем, что на нашем специализированном сайте Метеоцентр.Азия вы можете получить высокодетализированные автоматические прогнозы погоды по пунктам России, СНГ и мира в авиационном формате (включающие направление и скорость ветра, видимость, явления погоды, количество и форму облачности, нижнюю и верхнюю границу облачности).


Погода в Куре - сегодня

Время (UTC), дата Ветер
(°,м/с) 
Видим.   Явления Облачность Т
(°С)
Тd
(°С)
f(%) Тe
(°С)
Pmin
(гПа)
dP
(гПа)
Po
(мм)
O2
(г/м3)
Тmin Tmax R s Состояние
почвы
00 20.02.18 040 (СВ) 20000 м    ясно 
-25.3 -29.2 70 -26  1012.6  0.3  731  326  -30         
03 20.02.18 320 (СЗ) 20000 м    5/4 600 м верхняя 
[Cu med, cong|Cc]
-13.5 -27.3 30 -13  1009.5  -1.3  730  311           
06 20.02.18 210 (ЮЗ) 20000 м    8/5 600 м средняя, верхняя 
[Cu med, cong|As trans|Ci]
-11.7 -27.3 26 -14  1008.5  -0.7  729  309           
12 20.02.18 тихо ()   20000 м    3/0 средняя, верхняя 
[Ac lent|Cs]
-21.3 -26.2 65 -21  1012.9  1.2  731  321           
15 20.02.18 030 (СВ) 20000 м    ясно 
-24.7 -28.4 71 -25  1013.3  0.1  731  326           
18 20.02.18 тихо ()   20000 м    ясно 
-28.1 -31.4 73 -28  1014.1  0.2  731  330           
00 21.02.18 040 (СВ) 20000 м    ясно 
-26.4 -30.2 70 -30  1015  0.3  732  328  -32.4         
03 21.02.18 280 (З) 20000 м    ясно 
-13 -27.5 29 -13  1011.2  -1.7  731  311           
06 21.02.18 220 (ЮЗ) 20000 м    1/1 600 м 
[Cu hum]
-10.7 -27.6 23 -14  1010  -0.8  730  308           
09 21.02.18 210 (ЮЗ) 20000 м    ясно 
-14.9 -26.9 35 -15  1012.6  1.9  732  313    -10.7       
12 21.02.18 тихо ()   20000 м    ясно 
-21.9 -27.7 59 -22  1015.3  1.6  733  323           
15 21.02.18 тихо ()   20000 м    ясно 
-27 -31.2 67 -27  1016.5  0.4  733  330           
18 21.02.18 030 (СВ) 20000 м    ясно 
-27.6 -31.3 71 -28  1016.3  -0.3  733  330           
00 22.02.18 020 (С) 20000 м    10/0 верхняя 
[Cs]
-24.2 -29.9 59 -29  1017  734  326           
03 22.02.18 030 (СВ) 20000 м    9/1 600 м верхняя 
[Cu hum|Ci]
-14 -27 32 -14  1014  -1.3  733  313           
06 22.02.18 230 (ЮЗ) 20000 м    10/1 600 м верхняя 
[Cu hum|Cs]
-10.8 -24.8 31 -13  1012.3  -1.3  732  309           
09 22.02.18 230 (ЮЗ) 20000 м    9/0 верхняя 
[Cs]
-14.6 -23 49 -17  1015  2.1  733  314    -10.1       
12 22.02.18 тихо ()   20000 м    5/0 верхняя 
[Cs]
-21 -25.6 66 -21  1017.9  1.9  735  322           
15 22.02.18 тихо ()   20000 м    ясно 
-25.6 -28.4 77 -26  1019.5  0.8  735  329           
18 22.02.18 тихо ()   20000 м    ясно 
-27.2 -30.3 75 -27  1020.5  0.7  736  331           
00 23.02.18 020 (С) 20000 м    ясно 
-23.7 -28.2 66 -27  1023.2  1.7  738  328  -28.2         
03 23.02.18 тихо ()   20000 м    5/5 600 м 
[Cu med, cong]
-12.3 -23.3 39 -12  1020.4  -1  738  313           
06 23.02.18 200 (Ю) 20000 м    8/0 верхняя 
[Cu Sc|Cs]
-10 -24.8 29 -10  1018.9  -1.1  737  310           
12 23.02.18 тихо ()   20000 м  {снег}  3/0 верхняя 
[Ci ing]
-21 -24.2 75 -21  1024.6  740  325           
15 23.02.18 тихо ()   20000 м    3/0 верхняя 
[Ci fib]
-24.8 -27.6 77 -25  1026.3  1.8  740  330           
Время (UTC), дата Ветер
(°,м/с) 
Видим.   Явления Облачность Т
(°С)
Тd
(°С)
f(%) Тe
(°С)
Pmin
(гПа)
dP
(гПа)
Po
(мм)
O2
(г/м3)
Тmin Tmax R s Состояние
почвы

Для получения пояснительной информации подведите курсор к названию столбца.

ПОГОДА в Куре - архив

Всё, что Вы хотите узнать о погоде в Куре - удобно и подробно!

Выберите нужную дату (начиная с 1 января 2015* года) и нажмите кнопку "Найти".
Будут отображены архивные сводки погоды по пункту Кур, начиная с указанной даты.


Отображать данные в формате CSV (для использования в таблицах Excel)


Внимание! Наш архив погоды предназначен исключительно для личного некоммерческого использования в познавательных целях. Если Вам необходимы официальные справки о состоянии погоды (для производственных, юридических, коммерческих и т.п. целей), обращайтесь в органы Росгидромета.

*Примечание: данная дата относится к архиву по метеостанциям СССР (Россия, СНГ, Балтия).
Архив по метеостанциям Зарубежной Европы и Азии (кроме Китая) хранится 10 дней, по другим регионам земного шара (Китай, Африка, Америка, Австралия, Океания) - 1 день.

Кур - район местоположения метеостанции


Название, широта, долгота, высота метеостанции:
Кур 49.9°ш. 134.6°д. 283 м над ур. моря [Российская Федерация]

Дополнительная информация

В oтличие oт бoльшинства пoгoдных сайтoв мы публикуем пoдрoбную метеoинфoрмацию в детальнoм прoфессиoнальнoм фoрмате.

Характеристики температуры и влажнoсти вoздуха измеряются на высoте 2 м в тени вдали oт зданий и деревьев.
Скoрoсть ветра измеряется на высoте 10 м (на урoвне рoста челoвека скoрoсть ветра ниже в 1.5-2 раза). Если метеoстанция нахoдится в гoрoде или в лесу, тo скoрoсть ветра занижена на 2-4 м/с пo сравнению с oткрытым местoм. Скoрoсть ветра над акватoриями крупных рек и oзёр, а также на вершинах хoлмoв на 2-5 м/с выше, чем в oбычных услoвиях.
Атмoсфернoе давление в разных тoчках местнoсти мoжет значительнo oтличаться oт давления на метеoстанции, в зависимoсти oт услoвий рельефа (при пoдъёме на 10 м давление пoнижается примернo на 1 мм рт.ст.).